Wetterdaten: Woche 28.05.07 - 03.06.07 (KW22)
Datum Zeit Temperatur Luftfeuchte Luftdruck Niederschlag
28.05.2007 00:00 13,4 C 86 % 1001 hPa 4,0 l/m
28.05.2007 01:00 12,9 C 91 % 1000 hPa 0,0 l/m
28.05.2007 02:00 12,9 C 93 % 1000 hPa 0,0 l/m
28.05.2007 03:00 12,7 C 94 % 999 hPa 0,0 l/m
28.05.2007 04:00 12,1 C 93 % 999 hPa 2,0 l/m
28.05.2007 05:00 11,2 C 93 % 999 hPa 5,0 l/m
28.05.2007 06:00 10,8 C 93 % 998 hPa 1,0 l/m
28.05.2007 07:00 10,4 C 94 % 999 hPa 2,0 l/m
28.05.2007 08:00 9,3 C 94 % 999 hPa 3,0 l/m
28.05.2007 09:00 8,9 C 95 % 1000 hPa 0,0 l/m
28.05.2007 10:00 8,3 C 94 % 1000 hPa 0,0 l/m
28.05.2007 11:00 7,6 C 93 % 1000 hPa 0,0 l/m
28.05.2007 12:00 7,7 C 93 % 1001 hPa 0,0 l/m
28.05.2007 13:00 7,6 C 91 % 1001 hPa 1,0 l/m
28.05.2007 14:00 7,6 C 91 % 1001 hPa 0,0 l/m
28.05.2007 15:00 7,5 C 89 % 1001 hPa 0,0 l/m
28.05.2007 16:00 7,8 C 91 % 1002 hPa 1,0 l/m
28.05.2007 17:00 7,9 C 93 % 1002 hPa 0,0 l/m
28.05.2007 18:00 7,7 C 95 % 1002 hPa 2,0 l/m
28.05.2007 19:00 7,4 C 95 % 1002 hPa 4,0 l/m
28.05.2007 20:00 7,3 C 96 % 1003 hPa 1,0 l/m
28.05.2007 21:00 7,2 C 97 % 1003 hPa 1,0 l/m
28.05.2007 22:00 7,1 C 97 % 1003 hPa 1,0 l/m
28.05.2007 23:00 7,1 C 97 % 1003 hPa 1,0 l/m
29.05.2007 00:00 7,1 C 98 % 1003 hPa 2,0 l/m
29.05.2007 01:00 7,1 C 98 % 1003 hPa 0,0 l/m
29.05.2007 02:00 7,1 C 98 % 1003 hPa 1,0 l/m
29.05.2007 03:00 7,3 C 98 % 1003 hPa 2,0 l/m
29.05.2007 04:00 7,4 C 98 % 1002 hPa 2,0 l/m
29.05.2007 05:00 7,6 C 98 % 1002 hPa 3,0 l/m
29.05.2007 06:00 7,8 C 98 % 1002 hPa 4,0 l/m
29.05.2007 07:00 7,9 C 98 % 1003 hPa 7,0 l/m
29.05.2007 08:00 8,0 C 98 % 1003 hPa 8,0 l/m
29.05.2007 09:00 8,2 C 98 % 1003 hPa 6,0 l/m
29.05.2007 10:00 8,4 C 98 % 1004 hPa 4,0 l/m
29.05.2007 11:00 8,5 C 98 % 1005 hPa 4,0 l/m
29.05.2007 12:00 8,4 C 98 % 1005 hPa 4,0 l/m
29.05.2007 13:00 8,0 C 96 % 1006 hPa 2,0 l/m
29.05.2007 14:00 7,4 C 96 % 1007 hPa 2,0 l/m
29.05.2007 15:00 7,0 C 96 % 1009 hPa 1,0 l/m
29.05.2007 16:00 6,6 C 96 % 1010 hPa 2,0 l/m
29.05.2007 17:00 6,4 C 95 % 1011 hPa 2,0 l/m
29.05.2007 18:00 6,4 C 96 % 1012 hPa 2,0 l/m
29.05.2007 19:00 6,4 C 97 % 1012 hPa 3,0 l/m
29.05.2007 20:00 6,5 C 98 % 1013 hPa 3,0 l/m
29.05.2007 21:00 6,4 C 98 % 1014 hPa 2,0 l/m
29.05.2007 22:00 6,3 C 98 % 1015 hPa 1,0 l/m
29.05.2007 23:00 6,3 C 98 % 1016 hPa 1,0 l/m
30.05.2007 00:00 6,2 C 98 % 1016 hPa 1,0 l/m
30.05.2007 01:00 6,1 C 98 % 1016 hPa 0,0 l/m
30.05.2007 02:00 6,1 C 97 % 1016 hPa 0,0 l/m
30.05.2007 03:00 6,0 C 97 % 1016 hPa 0,0 l/m
30.05.2007 04:00 6,0 C 98 % 1016 hPa 0,0 l/m
30.05.2007 05:00 5,8 C 98 % 1016 hPa 0,0 l/m
30.05.2007 06:00 6,0 C 98 % 1016 hPa 0,0 l/m
30.05.2007 07:00 6,6 C 98 % 1017 hPa 0,0 l/m
30.05.2007 08:00 7,3 C 98 % 1017 hPa 0,0 l/m
30.05.2007 09:00 8,2 C 95 % 1017 hPa 0,0 l/m
30.05.2007 10:00 10,6 C 77 % 1017 hPa 0,0 l/m
30.05.2007 11:00 12,4 C 45 % 1017 hPa 0,0 l/m
30.05.2007 12:00 13,2 C 41 % 1016 hPa 0,0 l/m
30.05.2007 13:00 14,8 C 37 % 1016 hPa 0,0 l/m
30.05.2007 14:00 15,2 C 36 % 1015 hPa 0,0 l/m
30.05.2007 15:00 16,4 C 35 % 1015 hPa 0,0 l/m
30.05.2007 16:00 16,9 C 33 % 1015 hPa 0,0 l/m
30.05.2007 17:00 17,3 C 31 % 1015 hPa 0,0 l/m
30.05.2007 18:00 17,0 C 32 % 1014 hPa 0,0 l/m
30.05.2007 19:00 16,4 C 34 % 1014 hPa 0,0 l/m
30.05.2007 20:00 14,8 C 39 % 1014 hPa 0,0 l/m
30.05.2007 21:00 12,8 C 49 % 1014 hPa 0,0 l/m
30.05.2007 22:00 10,0 C 63 % 1015 hPa 0,0 l/m
30.05.2007 23:00 8,3 C 72 % 1015 hPa 0,0 l/m
31.05.2007 00:00 7,6 C 74 % 1015 hPa 0,0 l/m
31.05.2007 01:00 7,4 C 76 % 1014 hPa 0,0 l/m
31.05.2007 02:00 7,1 C 79 % 1014 hPa 0,0 l/m
31.05.2007 03:00 7,0 C 81 % 1014 hPa 0,0 l/m
31.05.2007 04:00 6,7 C 82 % 1014 hPa 0,0 l/m
31.05.2007 05:00 6,3 C 84 % 1014 hPa 0,0 l/m
31.05.2007 06:00 6,7 C 86 % 1014 hPa 0,0 l/m
31.05.2007 07:00 8,0 C 85 % 1015 hPa 0,0 l/m
31.05.2007 08:00 9,4 C 79 % 1015 hPa 0,0 l/m
31.05.2007 09:00 10,3 C 80 % 1015 hPa 0,0 l/m
31.05.2007 10:00 11,4 C 77 % 1016 hPa 0,0 l/m
31.05.2007 11:00 13,4 C 67 % 1015 hPa 0,0 l/m
31.05.2007 12:00 15,6 C 55 % 1015 hPa 0,0 l/m
31.05.2007 13:00 17,9 C 46 % 1015 hPa 0,0 l/m
31.05.2007 14:00 19,1 C 43 % 1014 hPa 0,0 l/m
31.05.2007 15:00 19,3 C 41 % 1014 hPa 0,0 l/m
31.05.2007 16:00 19,8 C 38 % 1013 hPa 0,0 l/m
31.05.2007 17:00 20,5 C 34 % 1012 hPa 0,0 l/m
31.05.2007 18:00 20,1 C 34 % 1012 hPa 0,0 l/m
31.05.2007 19:00 19,3 C 37 % 1012 hPa 0,0 l/m
31.05.2007 20:00 17,5 C 44 % 1011 hPa 0,0 l/m
31.05.2007 21:00 16,0 C 49 % 1011 hPa 0,0 l/m
31.05.2007 22:00 15,3 C 52 % 1012 hPa 0,0 l/m
31.05.2007 23:00 14,9 C 54 % 1012 hPa 0,0 l/m
01.06.2007 00:00 14,5 C 56 % 1011 hPa 0,0 l/m
01.06.2007 01:00 13,9 C 59 % 1011 hPa 0,0 l/m
01.06.2007 02:00 13,5 C 60 % 1011 hPa 0,0 l/m
01.06.2007 03:00 12,7 C 66 % 1011 hPa 0,0 l/m
01.06.2007 04:00 12,0 C 73 % 1012 hPa 0,0 l/m
01.06.2007 05:00 11,8 C 87 % 1012 hPa 0,0 l/m
01.06.2007 06:00 11,5 C 92 % 1013 hPa 0,0 l/m
01.06.2007 07:00 10,9 C 93 % 1014 hPa 1,0 l/m
01.06.2007 08:00 10,5 C 94 % 1014 hPa 1,0 l/m
01.06.2007 09:00 10,7 C 95 % 1015 hPa 0,0 l/m
01.06.2007 10:00 10,9 C 95 % 1015 hPa 1,0 l/m
01.06.2007 11:00 11,6 C 94 % 1015 hPa 0,0 l/m
01.06.2007 12:00 12,4 C 87 % 1015 hPa 0,0 l/m
01.06.2007 13:00 13,4 C 79 % 1015 hPa 0,0 l/m
01.06.2007 14:00 13,9 C 71 % 1016 hPa 0,0 l/m
01.06.2007 15:00 12,8 C 78 % 1016 hPa 2,0 l/m
01.06.2007 16:00 12,6 C 85 % 1016 hPa 0,0 l/m
01.06.2007 17:00 13,1 C 84 % 1016 hPa 1,0 l/m
01.06.2007 18:00 12,3 C 86 % 1016 hPa 2,0 l/m
01.06.2007 19:00 11,6 C 91 % 1017 hPa 1,0 l/m
01.06.2007 20:00 11,3 C 94 % 1017 hPa 1,0 l/m
01.06.2007 21:00 11,2 C 95 % 1017 hPa 0,0 l/m
01.06.2007 22:00 11,1 C 96 % 1018 hPa 0,0 l/m
01.06.2007 23:00 11,1 C 96 % 1018 hPa 0,0 l/m
02.06.2007 00:00 11,1 C 97 % 1018 hPa 2,0 l/m
02.06.2007 01:00 11,1 C 97 % 1018 hPa 1,0 l/m
02.06.2007 02:00 11,1 C 97 % 1018 hPa 0,0 l/m
02.06.2007 03:00 11,1 C 98 % 1018 hPa 0,0 l/m
02.06.2007 04:00 10,6 C 98 % 1018 hPa 0,0 l/m
02.06.2007 05:00 10,0 C 98 % 1019 hPa 0,0 l/m
02.06.2007 06:00 9,8 C 98 % 1019 hPa 0,0 l/m
02.06.2007 07:00 9,9 C 98 % 1019 hPa 0,0 l/m
02.06.2007 08:00 10,0 C 98 % 1020 hPa 0,0 l/m
02.06.2007 09:00 10,1 C 98 % 1020 hPa 0,0 l/m
02.06.2007 10:00 10,4 C 98 % 1021 hPa 1,0 l/m
02.06.2007 11:00 10,7 C 98 % 1021 hPa 0,0 l/m
02.06.2007 12:00 11,1 C 98 % 1021 hPa 0,0 l/m
02.06.2007 13:00 11,6 C 98 % 1021 hPa 0,0 l/m
02.06.2007 14:00 12,4 C 98 % 1021 hPa 0,0 l/m
02.06.2007 15:00 13,7 C 98 % 1021 hPa 0,0 l/m
02.06.2007 16:00 14,8 C 94 % 1021 hPa 0,0 l/m
02.06.2007 17:00 15,4 C 82 % 1021 hPa 0,0 l/m
02.06.2007 18:00 16,4 C 73 % 1021 hPa 0,0 l/m
02.06.2007 19:00 14,7 C 73 % 1021 hPa 0,0 l/m
02.06.2007 20:00 13,4 C 83 % 1021 hPa 0,0 l/m
02.06.2007 21:00 12,3 C 88 % 1022 hPa 0,0 l/m
02.06.2007 22:00 11,5 C 92 % 1022 hPa 0,0 l/m
02.06.2007 23:00 11,2 C 95 % 1022 hPa 0,0 l/m
03.06.2007 00:00 10,6 C 96 % 1022 hPa 0,0 l/m
03.06.2007 01:00 10,7 C 97 % 1021 hPa 0,0 l/m
03.06.2007 02:00 10,3 C 98 % 1021 hPa 0,0 l/m
03.06.2007 03:00 10,6 C 98 % 1021 hPa 0,0 l/m
03.06.2007 04:00 10,9 C 98 % 1021 hPa 0,0 l/m
03.06.2007 05:00 11,1 C 98 % 1021 hPa 0,0 l/m
03.06.2007 06:00 11,3 C 98 % 1021 hPa 0,0 l/m
03.06.2007 07:00 11,7 C 98 % 1021 hPa 0,0 l/m
03.06.2007 08:00 12,8 C 98 % 1021 hPa 0,0 l/m
03.06.2007 09:00 13,9 C 96 % 1021 hPa 0,0 l/m
03.06.2007 10:00 14,7 C 86 % 1021 hPa 0,0 l/m
03.06.2007 11:00 15,7 C 78 % 1021 hPa 0,0 l/m
03.06.2007 12:00 17,6 C 68 % 1021 hPa 0,0 l/m
03.06.2007 13:00 19,0 C 59 % 1020 hPa 0,0 l/m
03.06.2007 14:00 20,0 C 53 % 1020 hPa 0,0 l/m
03.06.2007 15:00 21,0 C 48 % 1020 hPa 0,0 l/m
03.06.2007 16:00 21,4 C 45 % 1020 hPa 0,0 l/m
03.06.2007 17:00 22,2 C 42 % 1019 hPa 0,0 l/m
03.06.2007 18:00 21,8 C 43 % 1019 hPa 0,0 l/m
03.06.2007 19:00 21,0 C 47 % 1019 hPa 0,0 l/m
03.06.2007 20:00 19,9 C 53 % 1019 hPa 0,0 l/m
03.06.2007 21:00 18,3 C 65 % 1020 hPa 0,0 l/m
03.06.2007 22:00 16,6 C 73 % 1020 hPa 0,0 l/m
03.06.2007 23:00 15,5 C 79 % 1020 hPa 0,0 l/m
Min-Datum _ 30.05.07 30.05.07 28.05.07 -
_ Min-Zeit 05:08 17:58 04:52 -
Minimum _ 5,8 C 30 % 998 hPa -
Max-Datum _ 03.06.07 29.05.07 02.06.07 29.05.07
_ Max-Zeit 17:41 00:25 21:37 08:03
Maximum _ 22,6 C 98 % 1022 hPa 8,0 l/m
Durchschnitt _ 11,5 C 82 % 1013 hPa #112,0 l/m

Durchschnitt Minimum Temp.11,2 C
Durchschnitt Maximum Temp.11,8 C